Kaneohe, HI

5:51 PM HST on February 11, 2016 (GMT -1000)
Kaneohe Bay Marine Corps Air Facility

Weather History for PHNG - April, 2014

Change the Weather History Date:

Monday, April 7, 2014

  Actual Average Record
Temperature  
Mean Temperature 72 °F -  
Max Temperature 77 °F 76 °F 80 °F (2002)
Min Temperature 68 °F 68 °F 68 °F (2011)
Cooling Degree Days 8    
Growing Degree Days 22 (Base 50)    
Moisture  
Dew Point 61 °F    
Average Humidity 70    
Maximum Humidity 83    
Minimum Humidity 54    
Precipitation  
Precipitation 0.00 in - - ()
Sea Level Pressure  
Sea Level Pressure 30.09 in    
Wind  
Wind Speed 17 mph (NNE)    
Max Wind Speed 23 mph    
Max Gust Speed 29 mph    
Visibility 6 miles    
Events Rain    
Averages and records for this station are not official NWS values.
T = Trace of Precipitation, MM = Missing Value Source: NWS Daily Summary

Daily Weather History Graph

Daily Weather History Graph

Search for Another Location

Airport or City:

Trip Planner

Search our weather history database for the weather conditions in past years. The results will help you decide how hot, cold, wet, or windy it might be!

Date:

Astronomy

Apr. 07, 2014 Rise Set
Actual Time 6:18 AM HST 6:47 PM HST
Civil Twilight 5:56 AM HST 7:10 PM HST
Nautical Twilight 5:29 AM HST 7:36 PM HST
Astronomical Twilight 5:03 AM HST 8:03 PM HST
Moon 12:42 PM HST (4/7) 1:13 AM HST (4/7)
Length of Visible Light 13h 14m
Length of Day
12h 29m
First Quarter, 55% of the Moon is Illuminated
Apr 7
First Quarter
Apr 14
Full
Apr 21
Last Quarter
Apr 28
New
May 6
First Quarter

Hourly Weather History & Observations

Time (HST) Temp. Dew Point Humidity Pressure Visibility Wind Dir Wind Speed Gust Speed Precip Events Conditions
12:02 AM 69.8 °F 62.6 °F 78% 30.11 in - NNE 15.0 mph 20.7 mph N/A Rain Rain
12:06 AM 69.8 °F 62.6 °F 78% 30.11 in 1.0 mi NNE 17.3 mph 21.9 mph N/A Rain Heavy Rain
12:14 AM 69.8 °F 62.6 °F 78% 30.11 in - North 17.3 mph 21.9 mph N/A Rain Rain
12:33 AM 69.8 °F 62.6 °F 78% 30.10 in 5.0 mi NNE 18.4 mph 27.6 mph N/A   Overcast
12:45 AM 69.8 °F 62.6 °F 78% 30.10 in 5.0 mi NNE 19.6 mph 26.5 mph N/A   Overcast
12:57 AM 69.8 °F 63.0 °F 79% 30.08 in 5.0 mi NNE 17.3 mph 25.3 mph N/A   Overcast
1:49 AM 69.8 °F 62.6 °F 78% 30.09 in 5.0 mi NNE 19.6 mph 25.3 mph N/A   Haze
1:57 AM 69.8 °F 63.0 °F 79% 30.08 in 7.0 mi NNE 21.9 mph 25.3 mph N/A   Overcast
2:05 AM 69.8 °F 62.6 °F 78% 30.09 in 6.2 mi NNE 20.7 mph 26.5 mph N/A   Overcast
2:13 AM 69.8 °F 62.6 °F 78% 30.09 in 6.2 mi NNE 19.6 mph 25.3 mph N/A   Overcast
2:50 AM 69.8 °F 62.6 °F 78% 30.08 in - NNE 18.4 mph 25.3 mph N/A Rain Light Rain
2:57 AM 69.8 °F 63.0 °F 79% 30.06 in 4.0 mi NNE 18.4 mph - N/A Rain Light Rain
3:57 AM 68.0 °F 62.1 °F 81% 30.06 in 7.0 mi NNE 18.4 mph - N/A   Overcast
4:13 AM 68.0 °F 62.6 °F 83% 30.06 in 6.2 mi NNE 21.9 mph - N/A   Overcast
4:30 AM 68.0 °F 62.6 °F 83% 30.06 in 6.2 mi NNE 20.7 mph 26.5 mph N/A   Overcast
4:57 AM 68.0 °F 62.1 °F 81% 30.06 in 7.0 mi NNE 16.1 mph 24.2 mph N/A   Scattered Clouds
5:42 AM 68.0 °F 62.6 °F 83% 30.09 in 5.0 mi NE 15.0 mph 25.3 mph N/A Rain Light Rain
5:57 AM 68.0 °F 62.1 °F 81% 30.08 in 6.0 mi NE 17.3 mph 27.6 mph N/A   Haze
6:09 AM 68.0 °F 60.8 °F 78% 30.10 in 6.2 mi NNE 19.6 mph 26.5 mph N/A   Overcast
6:17 AM 68.0 °F 60.8 °F 78% 30.10 in 6.2 mi NNE 20.7 mph 27.6 mph N/A   Overcast
6:27 AM 68.0 °F 60.8 °F 78% 30.10 in 6.2 mi NNE 17.3 mph 25.3 mph N/A   Overcast
6:57 AM 68.0 °F 61.0 °F 78% 30.10 in 7.0 mi NNE 19.6 mph 28.8 mph N/A   Overcast
7:57 AM 71.6 °F 61.0 °F 69% 30.12 in 7.0 mi NNE 18.4 mph 26.5 mph N/A   Overcast
8:43 AM 71.6 °F 60.8 °F 69% 30.14 in 6.2 mi NNE 16.1 mph 25.3 mph N/A   Overcast
8:57 AM 71.6 °F 60.1 °F 67% 30.13 in 7.0 mi NE 13.8 mph - N/A   Overcast
9:12 AM 71.6 °F 60.8 °F 69% 30.14 in 6.2 mi NE 13.8 mph - N/A   Overcast
9:57 AM 71.6 °F 60.1 °F 67% 30.13 in 7.0 mi NNE 15.0 mph - N/A   Overcast
10:57 AM 71.6 °F 60.1 °F 67% 30.13 in 7.0 mi NE 12.7 mph 21.9 mph N/A   Overcast
11:57 AM 75.2 °F 62.1 °F 64% 30.11 in 7.0 mi NE 16.1 mph 23.0 mph N/A   Overcast
12:57 PM 77.0 °F 61.0 °F 58% 30.09 in 7.0 mi NNE 15.0 mph 26.5 mph N/A   Overcast
1:23 PM 77.0 °F 60.8 °F 57% 30.09 in 6.2 mi NNE 18.4 mph 24.2 mph N/A   Overcast
1:42 PM 77.0 °F 60.8 °F 57% 30.09 in 6.2 mi NNE 17.3 mph 24.2 mph N/A   Overcast
1:50 PM 77.0 °F 60.8 °F 57% 30.09 in 6.2 mi NNE 13.8 mph - N/A   Overcast
1:57 PM 77.0 °F 60.1 °F 56% 30.07 in 7.0 mi NE 16.1 mph 25.3 mph N/A   Overcast
2:30 PM 77.0 °F 59.0 °F 54% 30.08 in 6.2 mi NE 12.7 mph 24.2 mph N/A   Overcast
2:57 PM 73.4 °F 59.0 °F 61% 30.06 in 7.0 mi NE 15.0 mph 23.0 mph N/A   Overcast
3:50 PM 73.4 °F 59.0 °F 61% 30.06 in 6.2 mi NE 15.0 mph 23.0 mph N/A   Overcast
3:57 PM 73.4 °F 59.0 °F 61% 30.05 in 7.0 mi NE 13.8 mph 21.9 mph N/A   Overcast
4:12 PM 73.4 °F 59.0 °F 61% 30.06 in 6.2 mi NE 13.8 mph - N/A   Overcast
4:57 PM 73.4 °F 59.0 °F 61% 30.05 in 7.0 mi NNE 12.7 mph 20.7 mph N/A   Overcast
5:23 PM 73.4 °F 59.0 °F 61% 30.07 in 6.2 mi NE 16.1 mph 23.0 mph N/A   Overcast
5:57 PM 73.4 °F 59.0 °F 61% 30.06 in 7.0 mi NE 17.3 mph 24.2 mph N/A   Overcast
6:19 PM 71.6 °F 59.0 °F 64% 30.08 in 6.2 mi NNE 23.0 mph - N/A   Overcast
6:47 PM 71.6 °F 59.0 °F 64% 30.09 in 6.2 mi NE 15.0 mph 23.0 mph N/A Rain Light Rain
6:57 PM 71.6 °F 59.0 °F 64% 30.08 in 7.0 mi NE 13.8 mph 24.2 mph N/A Rain Light Rain
7:33 PM 69.8 °F 59.0 °F 68% 30.10 in 6.2 mi NE 15.0 mph 23.0 mph N/A Rain Light Rain
7:57 PM 69.8 °F 59.0 °F 68% 30.09 in 7.0 mi NNE 13.8 mph 23.0 mph N/A Rain Light Rain
8:57 PM 68.0 °F 57.9 °F 70% 30.10 in 5.0 mi NE 16.1 mph 24.2 mph N/A   Haze
9:57 PM 68.0 °F 57.9 °F 70% 30.11 in 6.0 mi NE 13.8 mph 23.0 mph N/A   Haze
10:57 PM 69.8 °F 57.0 °F 64% 30.11 in 7.0 mi ENE 17.3 mph 25.3 mph N/A   Overcast
11:57 PM 69.8 °F 55.9 °F 61% 30.09 in 7.0 mi NE 16.1 mph 26.5 mph N/A   Overcast